User: anonymous   Login
Location: Colle Santa Colomba
(42.0333°N, 12.5667°E)
Time: 12:02:06
(UTC+00:00)
Language:

Cosmos 2333 Rocket - Orbit

View from above orbital plane
View from above orbital plane
View from above satellite
View from above satellite

Ground track
Ground track

The orbit data is extracted from the following two-line orbital elements,

1 24298U 96051B   22019.58792557 -.00000045  00000-0  22470-5 0  9998
2 24298  70.8202 124.9580 0018524 216.9135 143.0711 14.12402879308413
Epoch (UTC): 19 January 2022 14:06:36
Eccentricity: 0.0018524
inclination: 70.8202°
perigee height: 838 km
apogee height: 864 km
right ascension of ascending node: 124.9580°
argument of perigee: 216.9135°
revolutions per day: 14.12402879
mean anomaly at epoch: 143.0711°
orbit number at epoch: 30841

The dashed part of the orbit path shows where the satellite is in the earth's shadow,  

DLR